This demonstration page uses our WeatherBlox Daily Observations layout. Learn more.

Left ArrowRight Arrow

31.84235, -102.49876

Hourly Observations for May 7, 2015

Temp ( °F °C ) Dew Point ( °F °C ) Humidity (%) Winds ( mph kmh ) Pressure ( in mb ) Visibility ( mi km ) Precip ( " mm )
12:53 am 00:53 Clear 69 20.6 62 16.7 78 78 S 16 26 29.70 1006 8 13 0.00 0.00
1:53 am 01:53 Clear 69 20.6 62 16.7 78 78 S 15 24 29.67 1005 8 13 0.00 0.00
2:33 am 02:33 Mostly Cloudy 69 20.6 62 16.7 78 78 S 17 28 29.68 1005 8 13 0.00 0.00
2:53 am 02:53 Partly Cloudy 69 20.6 62 16.7 78 78 S 14 22 29.66 1004 8 13 0.00 0.00
3:22 am 03:22 Mostly Cloudy 69 20.6 62 16.7 78 78 S 16 26 29.68 1005 8 13 0.00 0.00
3:53 am 03:53 Cloudy 69 20.6 62 16.7 78 78 S 21 33 29.65 1004 8 13 0.00 0.00
4:53 am 04:53 Mostly Cloudy 69 20.6 63 17.2 81 81 S 13 20 29.65 1004 7 11 0.00 0.00
5:31 am 05:31 Hazy 68 20 63 17.2 84 84 S 12 19 29.68 1005 6 10 0.00 0.00
5:53 am 05:53 Hazy 68 20 63 17.2 84 84 S 9 15 29.66 1005 6 10 0.00 0.00
6:01 am 06:01 Mostly Cloudy with Haze 68 20 63 17.2 84 84 S 6 9 29.68 1005 6 10 0.00 0.00
6:44 am 06:44 Hazy 68 20 63 17.2 84 84 SSE 9 15 29.68 1005 6 10 0.00 0.00
6:53 am 06:53 Hazy 68 20 63 17.2 84 84 SSE 10 17 29.67 1005 6 10 0.00 0.00
7:53 am 07:53 Hazy 69 20.6 63 17.2 81 81 SSE 10 17 29.71 1006 4 6 0.00 0.00
8:29 am 08:29 Mostly Cloudy with Haze 70 21.1 64 17.8 82 82 SSE 9 15 29.71 1006 4 6 0.00 0.00
8:41 am 08:41 Cloudy with Haze 70 21.1 64 17.8 82 82 SSE 13 20 29.71 1006 4 6 0.00 0.00
8:53 am 08:53 Cloudy with Haze 71 21.7 64 17.8 79 79 S 13 20 29.73 1007 4 6 0.00 0.00
9:53 am 09:53 Cloudy with Haze 74 23.3 63 17.2 69 69 S 18 30 29.74 1007 6 10 0.00 0.00
10:53 am 10:53 undefined 76 24.4 61 16.1 60 60 SSW 20 31 29.74 1007 7 11 0.00 0.00
11:53 am 11:53 Mostly Cloudy 80 26.7 59 15 49 49 SSW 17 28 29.73 1007 9 14 0.00 0.00
12:53 pm 12:53 Sunny 82 27.8 58 14.4 44 44 WSW 14 22 29.71 1006 9 14 0.00 0.00
1:53 pm 13:53 Sunny 86 30 46 7.8 25 25 WSW 13 20 29.69 1006 10 16 0.00 0.00
2:53 pm 14:53 Sunny 87 30.6 39 3.9 18 18 WSW 10 17 29.69 1005 10 16 0.00 0.00
3:53 pm 15:53 Sunny 90 32.2 32 0 13 13 WSW 22 35 29.67 1005 10 16 0.00 0.00
4:53 pm 16:53 Sunny 89 31.7 28 -2.2 11 11 WSW 16 26 29.65 1004 10 16 0.00 0.00
5:53 pm 17:53 Sunny 90 32.2 29 -1.7 11 11 WSW 14 22 29.65 1004 10 16 0.00 0.00
6:53 pm 18:53 Sunny 88 31.1 29 -1.7 12 12 WSW 12 19 29.65 1004 10 16 0.00 0.00
7:53 pm 19:53 Sunny 87 30.6 30 -1.1 13 13 W 5 7 29.65 1004 10 16 0.00 0.00
8:53 pm 20:53 Clear 81 27.2 31 -0.6 16 16 NNW 5 7 29.66 1005 10 16 0.00 0.00
9:53 pm 21:53 Clear 70 21.1 52 11.1 53 53 ENE 17 28 29.71 1006 10 16 0.00 0.00
10:53 pm 22:53 Clear 66 18.9 57 13.9 73 73 E 17 28 29.74 1007 10 16 0.00 0.00
11:53 pm 23:53 Clear 64 17.8 57 13.9 78 78 E 12 19 29.74 1007 10 16 0.00 0.00

Powered by AerisWeather